TimeEST,TemperatureF,Dew PointF,Humidity,Sea Level PressureIn,VisibilityMPH,Wind Direction,Wind SpeedMPH,Gust SpeedMPH,PrecipitationIn,Events,Conditions,WindDirDegrees,DateUTC
12:15 AM,59.0,51.8,77,29.78,10.0,WSW,15.0,24.2,N/A,,Scattered Clouds,250,2013-03-06 05:15:00
12:35 AM,57.2,50.0,77,29.77,10.0,WSW,16.1,23.0,N/A,,Scattered Clouds,240,2013-03-06 05:35:00
12:55 AM,55.4,50.0,82,29.77,10.0,WSW,12.7,21.9,N/A,,Clear,250,2013-03-06 05:55:00
1:15 AM,55.4,50.0,82,29.78,10.0,WSW,17.3,25.3,N/A,,Clear,250,2013-03-06 06:15:00
1:55 AM,55.4,44.6,67,29.77,10.0,West,24.2,28.8,N/A,,Scattered Clouds,260,2013-03-06 06:55:00
2:15 AM,53.6,42.8,67,29.78,10.0,West,17.3,21.9,N/A,,Mostly Cloudy,270,2013-03-06 07:15:00
2:35 AM,51.8,41.0,67,29.79,10.0,West,23.0,33.4,N/A,,Scattered Clouds,280,2013-03-06 07:35:00
2:55 AM,50.0,37.4,62,29.80,10.0,West,19.6,34.5,N/A,,Scattered Clouds,270,2013-03-06 07:55:00
3:15 AM,48.2,35.6,62,29.81,10.0,West,24.2,33.4,N/A,,Clear,270,2013-03-06 08:15:00
3:55 AM,46.4,32.0,57,29.84,10.0,WNW,20.7,29.9,N/A,,Overcast,290,2013-03-06 08:55:00
4:15 AM,44.6,30.2,57,29.85,10.0,West,21.9,34.5,N/A,,Mostly Cloudy,280,2013-03-06 09:15:00
4:35 AM,42.8,28.4,57,29.86,10.0,West,21.9,36.8,N/A,,Scattered Clouds,280,2013-03-06 09:35:00
4:55 AM,42.8,28.4,57,29.86,10.0,West,18.4,35.7,N/A,,Clear,280,2013-03-06 09:55:00
5:15 AM,42.8,28.4,57,29.86,10.0,West,16.1,28.8,N/A,,Clear,270,2013-03-06 10:15:00
5:55 AM,42.8,26.6,53,29.86,10.0,West,17.3,27.6,N/A,,Clear,270,2013-03-06 10:55:00
6:15 AM,41.0,28.4,61,29.86,10.0,West,17.3,28.8,N/A,,Clear,260,2013-03-06 11:15:00
6:35 AM,41.0,28.4,61,29.87,10.0,West,19.6,25.3,N/A,,Clear,260,2013-03-06 11:35:00
6:55 AM,41.0,28.4,61,29.88,10.0,West,17.3,29.9,N/A,,Clear,260,2013-03-06 11:55:00
7:15 AM,42.8,28.4,57,29.89,10.0,West,21.9,28.8,N/A,,Scattered Clouds,260,2013-03-06 12:15:00
7:35 AM,42.8,28.4,57,29.89,10.0,West,21.9,28.8,N/A,,Mostly Cloudy,270,2013-03-06 12:35:00
7:55 AM,42.8,28.4,57,29.89,10.0,West,23.0,33.4,N/A,,Scattered Clouds,260,2013-03-06 12:55:00
8:15 AM,42.8,28.4,57,29.90,10.0,West,20.7,26.5,N/A,,Mostly Cloudy,260,2013-03-06 13:15:00
8:35 AM,42.8,23.0,46,29.92,10.0,West,23.0,39.1,N/A,,Mostly Cloudy,280,2013-03-06 13:35:00
9:15 AM,42.8,19.4,39,29.93,10.0,WNW,25.3,38.0,N/A,,Clear,290,2013-03-06 14:15:00
9:35 AM,44.6,19.4,37,29.93,10.0,WNW,28.8,38.0,N/A,,Clear,300,2013-03-06 14:35:00
9:55 AM,44.6,23.0,43,29.94,10.0,West,29.9,38.0,N/A,,Clear,280,2013-03-06 14:55:00
10:15 AM,44.6,21.2,39,29.94,10.0,West,29.9,38.0,N/A,,Clear,280,2013-03-06 15:15:00
10:35 AM,46.4,21.2,37,29.95,10.0,WNW,23.0,32.2,N/A,,Clear,300,2013-03-06 15:35:00
10:55 AM,46.4,21.2,37,29.94,10.0,WNW,29.9,39.1,N/A,,Clear,290,2013-03-06 15:55:00
11:15 AM,46.4,21.2,37,29.93,10.0,WNW,23.0,32.2,N/A,,Clear,290,2013-03-06 16:15:00
11:55 AM,50.0,23.0,35,29.93,10.0,WNW,18.4,32.2,N/A,,Clear,290,2013-03-06 16:55:00
12:15 PM,50.0,23.0,35,29.92,10.0,West,26.5,36.8,N/A,,Clear,270,2013-03-06 17:15:00
12:35 PM,50.0,21.2,32,29.92,10.0,WNW,24.2,35.7,N/A,,Clear,300,2013-03-06 17:35:00
12:55 PM,50.0,23.0,35,29.91,10.0,West,19.6,39.1,N/A,,Clear,280,2013-03-06 17:55:00
1:15 PM,51.8,24.8,35,29.91,10.0,West,19.6,31.1,N/A,,Scattered Clouds,280,2013-03-06 18:15:00
1:55 PM,51.8,23.0,33,29.90,10.0,WNW,27.6,35.7,N/A,,Scattered Clouds,290,2013-03-06 18:55:00
2:15 PM,51.8,23.0,33,29.90,10.0,WNW,20.7,31.1,N/A,,Scattered Clouds,300,2013-03-06 19:15:00
2:35 PM,51.8,23.0,33,29.90,10.0,West,24.2,35.7,N/A,,Clear,280,2013-03-06 19:35:00
2:55 PM,51.8,23.0,33,29.91,10.0,WNW,24.2,38.0,N/A,,Clear,300,2013-03-06 19:55:00
3:15 PM,51.8,23.0,33,29.91,10.0,WNW,24.2,31.1,N/A,,Clear,290,2013-03-06 20:15:00
3:35 PM,51.8,24.8,35,29.91,10.0,WNW,24.2,33.4,N/A,,Clear,290,2013-03-06 20:35:00
3:55 PM,51.8,26.6,38,29.91,10.0,WNW,19.6,26.5,N/A,,Clear,290,2013-03-06 20:55:00
4:15 PM,51.8,24.8,35,29.92,10.0,WNW,19.6,31.1,N/A,,Clear,300,2013-03-06 21:15:00
4:35 PM,51.8,26.6,38,29.93,10.0,WNW,19.6,29.9,N/A,,Clear,300,2013-03-06 21:35:00
4:55 PM,51.8,26.6,38,29.94,10.0,WNW,21.9,32.2,N/A,,Clear,300,2013-03-06 21:55:00
5:15 PM,50.0,26.6,40,29.95,10.0,WNW,21.9,34.5,N/A,,Clear,300,2013-03-06 22:15:00
5:35 PM,50.0,26.6,40,29.96,10.0,WNW,20.7,28.8,N/A,,Clear,290,2013-03-06 22:35:00
5:55 PM,50.0,28.4,43,29.97,10.0,WNW,18.4,23.0,N/A,,Clear,290,2013-03-06 22:55:00
6:35 PM,48.2,28.4,46,29.99,10.0,WNW,11.5,24.2,N/A,,Clear,290,2013-03-06 23:35:00
6:55 PM,48.2,28.4,46,30.01,10.0,WNW,11.5,19.6,N/A,,Clear,290,2013-03-06 23:55:00
7:15 PM,46.4,28.4,50,30.01,10.0,WNW,13.8,17.3,N/A,,Clear,290,2013-03-07 00:15:00
7:35 PM,46.4,28.4,50,30.03,10.0,WNW,10.4,-,N/A,,Clear,290,2013-03-07 00:35:00
7:55 PM,46.4,28.4,50,30.04,10.0,West,9.2,17.3,N/A,,Clear,280,2013-03-07 00:55:00
8:35 PM,46.4,28.4,50,30.06,10.0,WNW,10.4,-,N/A,,Clear,290,2013-03-07 01:35:00
9:15 PM,44.6,28.4,53,30.07,10.0,WNW,8.1,-,N/A,,Clear,300,2013-03-07 02:15:00
9:35 PM,44.6,28.4,53,30.08,10.0,WNW,8.1,-,N/A,,Clear,300,2013-03-07 02:35:00
9:55 PM,44.6,28.4,53,30.09,10.0,WNW,8.1,16.1,N/A,,Clear,300,2013-03-07 02:55:00
10:15 PM,44.6,28.4,53,30.09,10.0,WNW,9.2,-,N/A,,Clear,300,2013-03-07 03:15:00
10:35 PM,42.8,28.4,57,30.09,10.0,WNW,5.8,-,N/A,,Clear,290,2013-03-07 03:35:00
10:55 PM,42.8,30.2,61,30.10,10.0,WNW,9.2,-,N/A,,Clear,290,2013-03-07 03:55:00
11:15 PM,42.8,30.2,61,30.10,10.0,WNW,8.1,-,N/A,,Clear,300,2013-03-07 04:15:00
11:35 PM,41.0,30.2,65,30.11,10.0,WNW,8.1,-,N/A,,Clear,300,2013-03-07 04:35:00
11:55 PM,41.0,28.4,61,30.11,10.0,WNW,11.5,-,N/A,,Clear,300,2013-03-07 04:55:00